Starlink 32080

operational
NORAD ID: 59683 Int'l Des: 2024-086 Owner: SPXS Country: US Constellation: starlink
LEOCIRCULAR

Starlink 32080について

説明を読み込み中...

リアルタイム位置

3D地球を読み込み中...

次回通過

高度履歴

Altitude vs Time

uPlot chart will show altitude changes over time

軌道要素

1 59683U 24086B 26034.01487972 -.00001961 00000-0 -61729-4 0 9992
2 59683 43.0029 259.6229 0002273 259.2710 100.7885 15.27581619 98771
Epoch: Feb 3, 2026 • Age: 30 hours

現在のステータス

高度 484.9 km
速度 7.63 km/s
衛星直下点 30.82°N, 157.32°E
打ち上げ日 May 8, 2024
運用期間 1.7 years
タイプ internet

技術仕様

分類 Payload
質量 730.00 kg
乾燥質量 700.00 kg
総質量 730.00 kg
長さ 0.30 m
直径 4.10 m
スパン 29.00 m
形状 Box + pan
製造者 SPXS
バスタイプ Starlink V2M
フェーズステータス In Orbit
所有者/国 SPXS/US

大規模コンステレーション

Loading constellations...